EW6055 Weather Reports


Display with metric or nautical units.
time (UTC)temp
F
wind
direction
speed
MPH
gust
MPH
rain 1hr
in
rain 24hr
in
rain mn
in
humidity
%
barometer
mb
20260506132002 56 100 0.0 3.0 0.00 0.00 0.00 86 1017.5
20260506131502 56 0 0.0 0.0 0.00 0.00 0.00 86 1017.6
20260506131002 56 0 0.0 0.0 0.00 0.00 0.00 86 1017.7
20260506130524 56 0 0.0 0.0 0.00 0.00 0.00 85 1017.7
20260506130002 56 0 0.0 0.0 0.00 0.00 0.00 85 1017.6
20260506125523 56 0 0.0 0.0 0.00 0.00 0.00 85 1017.6
20260506125002 56 0 0.0 0.0 0.00 0.00 0.00 85 1017.5
20260506124503 56 0 0.0 0.0 0.00 0.00 0.00 85 1017.5
20260506124003 56 0 0.0 0.0 0.00 0.00 0.00 84 1017.6
20260506123503 56 0 0.0 0.0 0.00 0.00 0.00 84 1017.5
20260506123023 56 0 0.0 0.0 0.00 0.00 0.00 84 1017.6
20260506122523 56 0 0.0 0.0 0.00 0.00 0.00 84 1017.5
20260506122023 56 0 0.0 0.0 0.00 0.00 0.00 84 1017.5
20260506121502 56 0 0.0 0.0 0.00 0.00 0.00 84 1017.4
20260506121024 56 0 0.0 0.0 0.00 0.00 0.00 84 1017.4
20260506120503 56 0 0.0 0.0 0.00 0.00 0.00 84 1017.3
20260506120024 56 0 0.0 0.0 0.00 0.00 0.00 84 1017.3
20260506115503 56 0 0.0 0.0 0.00 0.00 0.00 84 1017.3
20260506114502 56 343 0.0 3.0 0.00 0.00 0.00 84 1017.2
20260506114003 57 0 0.0 0.0 0.00 0.00 0.00 84 1017.1
20260506113502 57 294 0.0 3.0 0.00 0.00 0.00 84 1017.1
20260506113003 57 294 0.0 3.0 0.00 0.00 0.00 84 1017.0
20260506112503 57 0 0.0 0.0 0.00 0.00 0.00 84 1016.9
20260506112002 57 0 0.0 0.0 0.00 0.00 0.00 84 1016.9
20260506111503 57 0 0.0 0.0 0.00 0.00 0.00 83 1016.8
20260506111002 57 0 0.0 2.0 0.00 0.00 0.00 83 1016.8
20260506110502 57 0 0.0 2.0 0.00 0.00 0.00 83 1016.8
20260506110002 57 318 0.0 2.0 0.00 0.00 0.00 83 1016.7
20260506105502 57 319 1.0 3.0 0.00 0.00 0.00 83 1016.5
20260506105003 57 322 1.0 3.0 0.00 0.00 0.00 83 1016.4
20260506104504 57 336 0.0 4.0 0.00 0.00 0.00 83 1016.3
20260506104002 57 327 1.0 4.0 0.00 0.00 0.00 83 1016.3
20260506103502 57 326 1.0 4.0 0.00 0.00 0.00 83 1016.2
20260506103002 58 333 1.0 4.0 0.00 0.00 0.00 83 1016.1
20260506102503 58 334 0.0 2.0 0.00 0.00 0.00 83 1016.1
20260506102002 58 0 0.0 0.0 0.00 0.00 0.00 83 1016.1
20260506101503 58 0 0.0 0.0 0.00 0.00 0.00 83 1016.1
20260506101003 58 0 0.0 0.0 0.00 0.00 0.00 83 1016.0
20260506100502 58 0 0.0 0.0 0.00 0.00 0.00 83 1016.0
20260506100003 58 0 0.0 0.0 0.00 0.00 0.00 83 1016.0
20260506095523 58 0 0.0 0.0 0.00 0.00 0.00 83 1015.9
20260506095003 58 0 0.0 0.0 0.00 0.00 0.00 83 1015.9
20260506094502 58 322 0.0 2.0 0.00 0.00 0.00 83 1016.0
20260506094003 58 326 1.0 5.0 0.00 0.00 0.00 83 1015.9
20260506093503 59 327 1.0 5.0 0.00 0.00 0.00 83 1015.9
20260506093003 59 328 0.0 4.0 0.00 0.00 0.00 84 1015.8
20260506092503 59 0 0.0 0.0 0.00 0.00 0.00 84 1015.8
20260506092003 59 310 0.0 3.0 0.00 0.00 0.00 84 1015.7
20260506091523 59 312 0.0 3.0 0.00 0.00 0.00 84 1015.8
20260506091002 59 315 0.0 3.0 0.00 0.00 0.00 85 1015.7
20260506090502 59 315 0.0 2.0 0.00 0.00 0.00 85 1015.7
20260506090002 59 326 1.0 3.0 0.00 0.00 0.00 84 1015.7
20260506085502 60 332 0.0 3.0 0.00 0.00 0.00 84 1015.6
20260506085002 60 0 0.0 0.0 0.00 0.00 0.00 84 1015.6
20260506084503 60 0 0.0 0.0 0.00 0.00 0.00 84 1015.7
20260506084003 60 0 0.0 0.0 0.00 0.00 0.00 83 1015.7
20260506083503 60 0 0.0 0.0 0.00 0.00 0.00 83 1015.7
20260506083002 60 0 0.0 0.0 0.00 0.00 0.00 83 1015.7
20260506082502 60 0 0.0 0.0 0.00 0.00 0.00 82 1015.7
20260506082002 60 0 0.0 0.0 0.00 0.00 0.00 82 1015.7
20260506081502 60 0 0.0 0.0 0.00 0.00 0.00 81 1015.6
20260506081002 60 0 0.0 0.0 0.00 0.00 0.00 81 1015.6
20260506080524 60 0 0.0 0.0 0.00 0.00 0.00 81 1015.6
20260506073502 60 0 0.0 0.0 0.00 0.00 0.00 80 1015.2
20260506073002 60 0 0.0 0.0 0.00 0.00 0.00 80 1015.2
20260506072502 60 0 0.0 0.0 0.00 0.00 0.00 80 1015.3
20260506072002 60 0 0.0 0.0 0.00 0.00 0.00 80 1015.3
20260506071502 60 0 0.0 0.0 0.00 0.00 0.00 79 1015.3
20260506071003 60 0 0.0 0.0 0.00 0.00 0.00 79 1015.2
20260506070502 60 0 0.0 0.0 0.00 0.00 0.00 79 1015.2
20260506062503 61 0 0.0 0.0 0.00 0.00 0.00 78 1015.1
20260506062003 61 0 0.0 0.0 0.00 0.00 0.00 78 1015.1
20260506061503 61 0 0.0 0.0 0.00 0.00 0.00 78 1015.0
20260506061024 61 0 0.0 0.0 0.00 0.00 0.00 78 1015.0
20260506060503 61 0 0.0 0.0 0.00 0.00 0.00 77 1015.0
20260506051002 61 0 0.0 0.0 0.00 0.00 0.00 76 1014.7
20260506050503 61 190 0.0 2.0 0.00 0.00 0.00 76 1014.7
20260506045002 62 226 0.0 1.0 0.00 0.00 0.00 75 1014.6
20260506044502 62 228 0.0 2.0 0.00 0.00 0.00 75 1014.6
20260506044003 62 228 0.0 2.0 0.00 0.00 0.00 75 1014.5
20260506043503 62 229 0.0 1.0 0.00 0.00 0.00 75 1014.4
20260506043002 62 0 0.0 0.0 0.00 0.00 0.00 74 1014.3
20260506042503 62 0 0.0 0.0 0.00 0.00 0.00 74 1014.3
20260506042003 62 0 0.0 0.0 0.00 0.00 0.00 73 1014.2
20260506041502 62 229 0.0 1.0 0.00 0.00 0.00 73 1014.1
20260506041003 62 229 0.0 1.0 0.00 0.00 0.00 73 1014.1
20260506040502 62 229 0.0 1.0 0.00 0.00 0.00 73 1014.1
20260506040024 62 229 0.0 1.0 0.00 0.00 0.00 73 1014.0
20260506035502 63 229 0.0 1.0 0.00 0.00 0.00 73 1013.9
20260506035002 63 232 0.0 2.0 0.00 0.00 0.00 73 1013.9
20260506034523 63 232 0.0 2.0 0.00 0.00 0.00 72 1013.8
20260506034002 63 253 0.0 1.0 0.00 0.00 0.00 72 1013.8
20260506033502 63 256 0.0 1.0 0.00 0.00 0.00 72 1013.8
20260506033003 63 273 0.0 1.0 0.00 0.00 0.00 71 1013.8
20260506032503 64 273 0.0 1.0 0.00 0.00 0.00 71 1013.7
20260506032002 64 273 0.0 2.0 0.00 0.00 0.00 71 1013.6
20260506031503 64 259 1.0 2.0 0.00 0.00 0.00 70 1013.6
20260506031003 64 143 1.0 2.0 0.00 0.00 0.00 70 1013.6
20260506030523 64 86 0.0 2.0 0.00 0.00 0.00 69 1013.5
20260506030024 64 52 0.0 1.0 0.00 0.00 0.00 69 1013.5
20260506025502 64 52 0.0 1.0 0.00 0.00 0.00 69 1013.5
20260506025003 64 51 0.0 1.0 0.00 0.00 0.00 69 1013.4
20260506024523 64 51 0.0 1.0 0.00 0.00 0.00 69 1013.3
20260506024002 64 46 0.0 3.0 0.00 0.00 0.00 69 1013.4
20260506023524 64 45 0.0 3.0 0.00 0.00 0.00 69 1013.4
20260506023002 64 8 0.0 2.0 0.00 0.00 0.00 69 1013.5
20260506022502 64 6 0.0 2.0 0.00 0.00 0.00 68 1013.5
20260506022002 65 351 0.0 1.0 0.00 0.00 0.00 69 1013.4
20260506021502 65 348 0.0 2.0 0.00 0.00 0.00 68 1013.3
20260506021003 65 18 0.0 2.0 0.00 0.00 0.00 68 1013.3
20260506020503 65 120 0.0 1.0 0.00 0.00 0.00 68 1013.4
20260506020003 65 122 0.0 2.0 0.00 0.00 0.00 68 1013.4
20260506015503 65 122 0.0 2.0 0.00 0.00 0.00 67 1013.3
20260506015024 65 120 0.0 2.0 0.00 0.00 0.00 67 1013.3
20260506014503 65 0 0.0 0.0 0.00 0.00 0.00 68 1013.3
20260506014002 65 0 0.0 0.0 0.00 0.00 0.00 67 1013.4
20260506013502 65 0 0.0 0.0 0.00 0.00 0.00 68 1013.4
20260506013002 65 0 0.0 0.0 0.00 0.00 0.00 68 1013.3
20260506012503 64 0 0.0 0.0 0.00 0.00 0.00 68 1013.4
20260506012003 64 284 0.0 1.0 0.00 0.00 0.00 68 1013.4
20260506011502 64 282 0.0 2.0 0.00 0.00 0.00 68 1013.4
20260506011003 64 281 0.0 2.0 0.00 0.00 0.00 68 1013.4
20260506010503 64 0 0.0 0.0 0.00 0.00 0.00 68 1013.4
20260506010003 64 308 0.0 3.0 0.00 0.00 0.00 68 1013.4
20260506005503 65 301 1.0 3.0 0.00 0.00 0.00 68 1013.3
20260506005002 65 287 0.0 2.0 0.00 0.00 0.00 68 1013.4
20260506004503 65 281 1.0 4.0 0.00 0.00 0.00 68 1013.4
20260506004003 65 275 0.0 4.0 0.00 0.00 0.00 68 1013.5
20260506003502 65 265 0.0 3.0 0.00 0.00 0.00 68 1013.5
20260506003002 65 262 0.0 3.0 0.00 0.00 0.00 68 1013.5
20260506002502 64 267 1.0 3.0 0.00 0.00 0.00 68 1013.4
20260506002003 65 270 1.0 2.0 0.00 0.00 0.00 67 1013.5
20260506001502 65 246 0.0 2.0 0.00 0.00 0.00 68 1013.5
20260506001003 65 0 0.0 0.0 0.00 0.00 0.00 68 1013.6
20260506000524 65 0 0.0 0.0 0.00 0.00 0.00 68 1013.6
20260506000003 65 0 0.0 0.0 0.00 0.00 0.00 68 1013.6
20260505235503 65 0 0.0 0.0 0.00 0.00 0.00 67 1013.7
20260505235003 65 0 0.0 0.0 0.00 0.00 0.00 67 1013.8
20260505234503 65 0 0.0 0.0 0.00 0.00 0.00 67 1013.8
20260505234002 65 0 0.0 0.0 0.00 0.00 0.00 67 1013.9
20260505233502 66 0 0.0 0.0 0.00 0.00 0.00 67 1013.9
20260505233002 66 0 0.0 0.0 0.00 0.00 0.00 67 1013.8
20260505232502 65 0 0.0 0.0 0.00 0.00 0.00 67 1013.8
20260505232002 65 0 0.0 0.0 0.00 0.00 0.00 67 1013.8
20260505231503 65 279 0.0 3.0 0.00 0.00 0.00 67 1013.8
20260505231002 65 301 1.0 4.0 0.00 0.00 0.00 67 1013.9
20260505230502 65 305 1.0 4.0 0.00 0.00 0.00 66 1013.9
20260505230003 65 265 0.0 3.0 0.00 0.00 0.00 66 1014.0
20260505225503 65 0 0.0 0.0 0.00 0.00 0.00 66 1014.0
20260505225003 65 284 0.0 2.0 0.00 0.00 0.00 67 1014.0
20260505224502 65 280 1.0 4.0 0.00 0.00 0.00 67 1014.1
20260505224024 65 267 1.0 4.0 0.00 0.00 0.00 67 1014.1
20260505223523 65 261 1.0 3.0 0.00 0.00 0.00 67 1014.2
20260505223024 65 271 1.0 3.0 0.00 0.00 0.00 67 1014.2
20260505222502 65 300 1.0 5.0 0.00 0.00 0.00 68 1014.2
20260505222003 65 292 1.0 5.0 0.00 0.00 0.00 67 1014.2
20260505221503 65 258 1.0 4.0 0.00 0.00 0.00 67 1014.2
20260505221024 65 266 1.0 4.0 0.00 0.00 0.00 67 1014.2
20260505220503 65 278 1.0 4.0 0.00 0.00 0.00 67 1014.3
20260505220002 65 276 0.0 3.0 0.00 0.00 0.00 68 1014.3
20260505215502 65 264 0.0 1.0 0.00 0.00 0.00 68 1014.2
20260505215024 65 240 0.0 3.0 0.00 0.00 0.00 68 1014.3
20260505214524 65 258 1.0 4.0 0.00 0.00 0.00 68 1014.3
20260505214002 64 260 1.0 4.0 0.00 0.00 0.00 69 1014.3
20260505213503 64 235 1.0 3.0 0.00 0.00 0.00 68 1014.3
20260505213002 64 270 1.0 3.0 0.00 0.00 0.00 68 1014.4
20260505212524 64 296 0.0 3.0 0.00 0.00 0.00 68 1014.3
20260505212024 64 259 0.0 3.0 0.00 0.00 0.00 69 1014.4
20260505211502 64 243 1.0 3.0 0.00 0.00 0.00 68 1014.4
20260505211023 64 263 1.0 3.0 0.00 0.00 0.00 69 1014.5
20260505210524 64 286 1.0 3.0 0.00 0.00 0.00 69 1014.5
20260505210024 64 0 0.0 0.0 0.00 0.00 0.00 70 1014.5
20260505205503 64 237 0.0 2.0 0.00 0.00 0.00 70 1014.4
20260505205003 63 233 1.0 3.0 0.00 0.00 0.00 70 1014.5
20260505204524 63 246 1.0 3.0 0.00 0.00 0.00 70 1014.6
20260505204003 63 282 0.0 2.0 0.00 0.00 0.00 70 1014.6
20260505203502 63 0 0.0 0.0 0.00 0.00 0.00 71 1014.6
20260505203003 63 295 1.0 3.0 0.00 0.00 0.00 70 1014.7
20260505202503 63 295 1.0 3.0 0.00 0.00 0.00 70 1014.7
20260505202003 63 278 0.0 1.0 0.00 0.00 0.00 71 1014.7
20260505201503 63 0 0.0 0.0 0.00 0.00 0.00 71 1014.7
20260505201024 63 0 0.0 0.0 0.00 0.00 0.00 71 1014.8
20260505200503 63 115 0.0 3.0 0.00 0.00 0.00 71 1014.8
20260505200023 63 166 1.0 3.0 0.00 0.00 0.00 71 1014.8
20260505195503 63 221 1.0 3.0 0.00 0.00 0.00 71 1014.8
20260505195024 63 221 1.0 2.0 0.00 0.00 0.00 71 1014.8
20260505194503 63 207 1.0 2.0 0.00 0.00 0.00 70 1014.8
20260505194003 63 193 0.0 2.0 0.00 0.00 0.00 71 1014.8
20260505193503 63 0 0.0 0.0 0.00 0.00 0.00 71 1014.8
20260505193003 62 177 0.0 3.0 0.00 0.00 0.00 73 1014.9
20260505192503 62 185 1.0 3.0 0.00 0.00 0.00 72 1014.9
20260505192024 62 192 0.0 2.0 0.00 0.00 0.00 73 1014.8
20260505191503 62 0 0.0 0.0 0.00 0.00 0.00 73 1014.8
20260505191002 61 0 0.0 0.0 0.00 0.00 0.00 74 1014.8
20260505190503 61 109 0.0 1.0 0.00 0.00 0.00 74 1014.8
20260505190003 61 132 0.0 3.0 0.00 0.00 0.00 73 1014.9
20260505185503 61 148 1.0 3.0 0.00 0.00 0.00 73 1014.8
20260505185003 61 178 1.0 2.0 0.00 0.00 0.00 74 1014.9
20260505184503 61 200 1.0 2.0 0.00 0.00 0.00 74 1014.9
20260505184024 61 232 1.0 2.0 0.00 0.00 0.00 75 1014.9
20260505183503 61 240 1.0 3.0 0.00 0.00 0.00 75 1015.0
20260505183003 61 239 0.0 3.0 0.00 0.00 0.00 75 1014.9
20260505182524 60 235 0.0 2.0 0.00 0.00 0.00 76 1014.8
20260505182002 60 202 1.0 2.0 0.00 0.00 0.00 77 1014.8
20260505181502 60 210 1.0 2.0 0.00 0.00 0.00 77 1014.8
20260505181003 60 211 1.0 2.0 0.00 0.00 0.00 78 1014.8
20260505180503 59 173 0.0 1.0 0.00 0.00 0.00 78 1014.8
20260505180003 59 247 1.0 3.0 0.00 0.00 0.00 78 1014.8
20260505175503 59 231 1.0 3.0 0.00 0.00 0.00 79 1014.8
20260505175003 59 210 1.0 3.0 0.00 0.00 0.00 79 1014.8
20260505174503 58 211 1.0 2.0 0.00 0.00 0.00 79 1014.8
20260505174003 58 201 1.0 2.0 0.00 0.00 0.00 80 1014.7
20260505173524 58 190 1.0 2.0 0.00 0.00 0.00 80 1014.7
20260505173024 58 196 1.0 2.0 0.00 0.00 0.00 81 1014.7
20260505172503 58 210 1.0 2.0 0.00 0.00 0.00 82 1014.7
20260505172024 57 208 1.0 5.0 0.00 0.00 0.00 83 1014.6
20260505171503 57 152 1.0 5.0 0.00 0.00 0.00 85 1014.6
20260505171003 56 133 1.0 4.0 0.00 0.00 0.00 85 1014.6
20260505170524 56 139 1.0 3.0 0.00 0.00 0.00 86 1014.6
20260505170003 56 172 1.0 3.0 0.00 0.00 0.00 86 1014.6
20260505165524 56 193 1.0 3.0 0.00 0.00 0.00 87 1014.5
20260505165003 56 231 1.0 3.0 0.00 0.00 0.00 87 1014.5
20260505164524 55 228 1.0 3.0 0.00 0.00 0.00 87 1014.5
20260505164002 55 214 0.0 3.0 0.00 0.00 0.00 87 1014.5
20260505163503 55 0 0.0 0.0 0.00 0.00 0.00 88 1014.5
20260505163003 55 0 0.0 0.0 0.00 0.00 0.00 88 1014.4
20260505162503 55 0 0.0 0.0 0.00 0.00 0.00 89 1014.3
20260505162002 55 0 0.0 0.0 0.00 0.00 0.00 90 1014.4
20260505161503 54 0 0.0 0.0 0.00 0.00 0.00 90 1014.3
20260505161024 54 0 0.0 0.0 0.00 0.00 0.00 90 1014.3
20260505160502 54 0 0.0 0.0 0.00 0.00 0.00 90 1014.3
20260505153024 53 0 0.0 0.0 0.00 0.00 0.00 92 1014.3
20260505152524 53 0 0.0 0.0 0.00 0.00 0.00 92 1014.2
20260505152002 53 0 0.0 0.0 0.00 0.00 0.00 92 1014.3
20260505151524 53 0 0.0 0.0 0.00 0.00 0.00 92 1014.2
20260505151003 53 0 0.0 0.0 0.00 0.00 0.00 92 1014.2
20260505150503 53 0 0.0 0.0 0.00 0.00 0.00 92 1014.2
20260505140503 53 0 0.0 0.0 0.00 0.00 0.00 90 1013.7